EST,Max TemperatureF,Mean TemperatureF,Min TemperatureF,Max Dew PointF,MeanDew PointF,Min DewpointF,Max Humidity, Mean Humidity, Min Humidity, Max Sea Level PressureIn, Mean Sea Level PressureIn, Min Sea Level PressureIn, Max VisibilityMiles, Mean VisibilityMiles, Min VisibilityMiles, Max Wind SpeedMPH, Mean Wind SpeedMPH, Max Gust SpeedMPH,PrecipitationIn, CloudCover, Events, WindDirDegrees
2013-1-1,75,64,53,61,57,52,100,78,53,30.22,30.13,30.07,10,9,4,15,6,18,0.00,5,,132
2013-1-2,73,66,59,66,64,59,100,92,78,30.09,30.06,30.02,10,5,0,13,6,17,0.00,4,Fog-Rain,172
2013-1-3,77,68,59,68,64,59,100,91,61,30.14,30.09,30.04,10,7,0,14,5,20,0.07,3,Fog-Rain-Thunderstorm,105
2013-1-4,68,64,59,68,61,59,100,92,78,30.28,30.21,30.13,10,7,3,16,12,21,0.00,8,Rain,45
2013-1-5,77,68,59,64,61,59,100,88,65,30.29,30.23,30.18,10,8,2,16,10,24,0.00,5,,47
2013-1-6,78,71,64,70,67,64,100,91,69,30.21,30.14,30.08,10,6,0,13,7,17,0.00,5,Fog-Rain,101
2013-1-7,71,66,62,66,63,59,100,88,69,30.20,30.14,30.11,10,8,2,16,11,20,0.07,6,Rain,52
2013-1-8,82,72,62,68,66,59,100,83,58,30.21,30.15,30.12,10,10,5,12,9,18,0.00,2,,76
2013-1-9,86,77,68,72,68,64,100,83,48,30.28,30.22,30.17,10,8,3,16,8,22,0.00,1,,99
2013-1-10,84,76,66,68,65,59,100,74,42,30.29,30.25,30.19,10,9,5,17,9,25,0.00,2,,107
2013-1-11,82,72,62,68,63,57,100,77,48,30.27,30.20,30.14,10,9,5,16,7,24,0.00,1,,102
2013-1-12,82,73,64,68,66,64,100,85,54,30.19,30.14,30.09,10,10,5,15,7,20,0.00,2,,105
2013-1-13,77,70,64,68,65,63,100,84,69,30.17,30.11,30.07,10,10,8,9,7,,0.00,2,,141
2013-1-14,78,70,62,64,62,57,100,78,47,30.19,30.15,30.13,10,9,5,13,7,21,0.00,1,,132
2013-1-15,77,68,59,66,63,57,100,84,65,30.16,30.11,30.07,10,10,7,10,5,,0.00,2,,111
2013-1-16,77,70,64,68,65,63,100,83,61,30.12,30.07,30.03,10,10,5,12,6,16,0.00,1,,163
2013-1-17,73,66,59,72,61,48,100,85,59,30.16,30.08,30.03,10,8,1,25,10,34,0.00,4,Rain,264
2013-1-18,68,55,42,57,47,32,94,70,49,30.32,30.24,30.16,10,10,8,20,14,28,0.00,4,,26
2013-1-19,73,63,53,63,58,50,100,82,61,30.26,30.19,30.13,10,9,5,18,13,23,0.00,5,,55
2013-1-20,73,68,62,64,62,59,100,87,69,30.17,30.11,30.05,10,8,5,13,8,,0.00,6,,33
2013-1-21,71,66,60,66,60,50,100,84,63,30.13,30.08,30.04,10,9,2,17,9,18,0.19,4,Rain,360
2013-1-22,66,60,53,54,43,36,77,55,37,30.29,30.19,30.08,10,10,7,17,9,23,0.00,0,,23
2013-1-23,71,60,48,48,41,32,82,56,23,30.37,30.31,30.27,10,10,7,15,10,21,0.00,0,,24
2013-1-24,69,56,44,54,46,39,93,68,35,30.36,30.29,30.25,10,10,5,17,8,24,0.00,0,,26
2013-1-25,73,62,50,55,52,48,100,76,41,30.33,30.27,30.22,10,8,2,10,6,,0.00,0,,21
2013-1-26,73,62,50,59,53,48,100,77,44,30.30,30.24,30.20,10,8,4,13,7,17,0.00,0,,18
2013-1-27,78,66,53,59,53,46,100,69,32,30.31,30.26,30.22,10,8,3,14,8,21,0.00,0,,64
2013-1-28,80,70,59,64,60,57,100,78,48,30.32,30.27,30.22,10,9,2,17,8,23,0.00,3,Rain,92
2013-1-29,80,70,59,68,64,57,100,82,58,30.24,30.17,30.11,10,10,5,17,8,23,0.00,2,,130
2013-1-30,77,70,64,68,66,64,100,85,69,30.11,30.02,29.95,10,10,7,24,12,32,0.00,0,,150
2013-1-31,69,60,51,68,48,32,100,67,41,30.25,30.13,29.95,10,9,2,25,12,41,0.10,2,Rain,340